Location: Red Deer
(52.2681°N, 113.8112°W)
Time: 00:52:36
(UTC-06:00)

QB50P2 - Pass Details

Date: 26 May 2022
Orbit: 589 x 607 km, 97.9° (Epoch: 27 June)

Event Time Altitude Azimuth Distance (km) Brightness Sun altitude
Rises 03:46:46 0° 9° (N) 2,839 ? -10.9°
Reaches altitude 10° 03:49:01 10° 3° (N) 1,931 ? -10.8°
Maximum altitude 03:52:58 42° 292° (WNW) 856 ? -10.4°
Enters shadow 03:56:18 14° 225° (SW) 1,693 ? -10.2°
